Weather reports worldwide

Advertisment
Magdeburg, Germany (10361): temperature & dewpoint: 25.10.2020 20:00:00 - 31.10.2020 20:00:00 (CET)Magdeburg, Germany (10361): temperature 5cm & temperature -5cm: 25.10.2020 20:00:00 - 31.10.2020 20:00:00 (CET)Magdeburg, Germany (10361): temperature -20cm & temperature -100cm: 25.10.2020 20:00:00 - 31.10.2020 20:00:00 (CET)Magdeburg, Germany (10361): wind speed & gusts: 25.10.2020 20:00:00 - 31.10.2020 20:00:00 (CET)Magdeburg, Germany (10361): wind direction: 25.10.2020 20:00:00 - 31.10.2020 20:00:00 (CET)Magdeburg, Germany (10361): reduced air pressure: 25.10.2020 20:00:00 - 31.10.2020 20:00:00 (CET)Magdeburg, Germany (10361): visibility: 25.10.2020 20:00:00 - 31.10.2020 20:00:00 (CET)Magdeburg, Germany (10361): sunshine duration: 25.10.2020 20:00:00 - 31.10.2020 20:00:00 (CET)Magdeburg, Germany (10361): precipitation: 25.10.2020 20:00:00 - 31.10.2020 20:00:00 (CET)
Date & Time tt [°C] td [°C] tt 5cm [°C] tt -5cm [°C] tt -20cm [°C] tt -100cm [°C] ff [km/h] ff [kn] fx [km/h] fx [kn] dd ppp [hPa] vv [km] sd [min] rr [mm]
31.10.2020 20:00:00 13,1 10,3 11,2 12,6 13,1 12,5 14 7 29 16 S 1017,5 58 0 0,0
31.10.2020 19:00:00 14,3 12,5 13,6 13,5 13,2 12,5 9 5 19 10 S 1018,3 41 0 0,0
31.10.2020 18:00:00 14,2 12,5 13,5 13,6 13,2 12,5 9 5 17 9 S 1018,9 40 0 0,0
31.10.2020 17:00:00 14,2 12,0 12,4 14,2 13,2 12,5 9 5 24 13 SSE 1019,0 72 18 0,0
31.10.2020 16:00:00 15,7 13,1 15,3 15,5 13,0 12,5 8 5 23 12 SSE 1019,3 57 2 0,0
31.10.2020 15:00:00 16,3 13,3 16,1 16,3 12,8 12,6 9 5 19 10 S 1020,0 69 0 0,0
31.10.2020 14:00:00 16,6 13,2 16,7 17,2 12,5 12,6 9 5 16 9 S 1020,6 71 7 0,0
31.10.2020 13:00:00 16,4 13,1 17,9 17,1 12,2 12,6 6 4 16 9 SW 1021,3 55 43 0,0
31.10.2020 12:00:00 15,7 13,1 17,4 15,8 12,0 12,6 11 6 21 11 SW 1022,1 34 10 0,0
31.10.2020 11:00:00 15,0 13,0 15,7 14,8 11,8 12,6 10 5 16 9 SW 1022,6 34 1 0,0
31.10.2020 10:00:00 14,5 13,0 14,7 13,8 11,7 12,6 9 5 16 9 WSW 1022,8 21 1 0,0
31.10.2020 09:00:00 14,2 13,1 13,7 13,0 11,7 12,6 9 5 18 10 W 1022,9 29 8 0,0
31.10.2020 08:00:00 13,3 12,7 12,5 12,2 11,6 12,6 8 5 17 9 W 1022,7 11 0 0,0
31.10.2020 07:00:00 13,4 12,8 12,6 12,2 11,6 12,6 9 5 19 11 W 1022,4 10 0 0,0
31.10.2020 06:00:00 13,3 12,7 12,6 12,2 11,6 12,6 10 5 19 10 W 1022,1 14 0 0,0
31.10.2020 05:00:00 13,4 12,6 12,6 12,2 11,6 12,6 9 5 22 12 W 1021,7 18 0 0,0
31.10.2020 04:00:00 13,9 12,4 13,1 12,2 11,5 12,6 11 6 22 12 W 1021,4 28 0 0,0
31.10.2020 03:00:00 14,1 12,1 13,3 12,2 11,5 12,6 10 5 17 9 W 1021,4 50 0 0,0
31.10.2020 02:00:00 13,9 12,4 12,8 12,2 11,5 12,6 11 6 22 12 W 1021,5 33 0 0,0
31.10.2020 01:00:00 14,2 11,9 13,4 12,2 11,5 12,6 13 7 24 13 W 1021,2 46 0 0,0
31.10.2020 00:00:00 14,2 12,1 13,2 12,2 11,4 12,6 12 7 24 13 W 1020,8 34 0 0,0
30.10.2020 23:00:00 14,0 12,3 13,0 12,2 11,4 12,6 13 7 28 15 W 1020,4 22 0 0,0
30.10.2020 22:00:00 13,9 12,6 12,7 12,3 11,4 12,6 16 9 30 16 W 1020,1 19 0 0,1
30.10.2020 21:00:00 14,1 12,5 12,8 12,3 11,3 12,6 16 9 30 16 W 1019,6 25 0 0,0
30.10.2020 20:00:00 14,1 12,6 12,8 12,3 11,2 12,6 18 10 31 17 W 1019,2 23 0 0,0
30.10.2020 19:00:00 14,1 12,6 12,7 12,3 11,2 12,6 18 10 34 18 W 1018,6 36 0 0,3
30.10.2020 18:00:00 13,8 12,7 12,6 12,3 11,1 12,6 17 9 33 18 W 1018,0 18 0 0,3
30.10.2020 17:00:00 14,2 12,6 13,5 12,5 10,9 12,6 18 10 41 22 W 1017,5 59 0 0,0
30.10.2020 16:00:00 14,5 12,6 13,9 12,8 10,8 12,6 21 11 40 21 W 1016,9 70 0 0,0
30.10.2020 15:00:00 14,5 12,7 13,4 12,8 10,6 12,6 21 11 38 21 W 1016,3 57 0 0,0
30.10.2020 14:00:00 14,2 12,5 13,1 12,5 10,4 12,6 21 11 38 21 W 1015,9 37 0 0,6
30.10.2020 13:00:00 14,1 12,4 13,1 12,2 10,3 12,6 19 11 38 21 W 1015,7 13 0 0,1
30.10.2020 12:00:00 14,0 12,2 12,7 11,8 10,1 12,7 21 11 39 21 W 1015,6 37 0 0,0
30.10.2020 11:00:00 14,1 12,0 13,1 11,5 9,9 12,7 11 6 29 15 WSW 1015,6 66 0 0,1
30.10.2020 10:00:00 13,5 11,6 12,7 10,8 9,8 12,7 13 7 27 14 WSW 1015,4 68 0 0,0
30.10.2020 09:00:00 12,7 11,1 11,9 10,0 9,8 12,7 11 6 23 12 WSW 1015,3 54 0 0,0
30.10.2020 08:00:00 11,7 10,3 10,6 9,5 9,7 12,7 11 6 22 12 SW 1014,6 70 0 0,0
30.10.2020 07:00:00 10,8 9,9 9,7 9,1 9,7 12,7 11 6 23 13 SW 1014,3 72 0 0,2
30.10.2020 06:00:00 10,1 9,3 9,2 8,9 9,7 12,7 9 5 16 9 SSW 1014,4 22 0 0,2
30.10.2020 05:00:00 9,6 9,0 8,9 8,7 9,7 12,7 9 5 16 8 S 1014,7 26 0 0,4
30.10.2020 04:00:00 9,1 8,7 8,5 8,6 9,7 12,7 8 4 17 9 S 1015,0 5 0 1,2
30.10.2020 03:00:00 8,8 8,2 8,1 8,4 9,8 12,7 8 4 18 10 SSE 1015,4 9 0 1,3
30.10.2020 02:00:00 8,8 7,7 7,9 8,3 9,8 12,7 9 5 18 10 S 1015,9 18 0 0,7
30.10.2020 01:00:00 9,0 7,2 7,7 8,2 9,9 12,7 10 5 23 12 SSW 1016,6 22 0 0,4
30.10.2020 00:00:00 9,3 6,6 7,8 8,1 10,0 12,7 9 5 18 10 SSW 1017,2 31 0 0,0
29.10.2020 23:00:00 9,4 6,1 7,8 8,0 10,1 12,7 8 5 22 12 SW 1017,8 23 0 0,0
29.10.2020 22:00:00 9,7 5,3 8,5 7,8 10,2 12,7 11 6 18 10 SW 1017,8 36 0 0,0
29.10.2020 21:00:00 9,3 5,2 7,7 7,8 10,4 12,7 10 6 18 10 SW 1017,7 35 0 0,0
29.10.2020 20:00:00 9,3 5,2 7,5 8,0 10,5 12,7 9 5 21 11 WSW 1017,6 37 0 0,0
29.10.2020 19:00:00 9,6 5,4 7,8 8,5 10,6 12,7 10 6 19 10 SW 1017,2 33 0 0,0
29.10.2020 18:00:00 10,3 5,7 8,2 9,2 10,7 12,7 9 5 22 12 SW 1016,9 36 0 0,0
29.10.2020 17:00:00 11,2 5,8 10,0 10,0 10,7 12,7 12 6 24 13 WSW 1016,1 42 0 0,0
29.10.2020 16:00:00 11,5 6,2 10,5 10,7 10,6 12,7 13 7 31 17 WSW 1015,8 45 0 0,0
29.10.2020 15:00:00 11,8 6,0 11,4 11,5 10,4 12,7 15 8 41 22 W 1015,1 41 7 0,0
29.10.2020 14:00:00 11,7 5,7 11,8 12,2 10,3 12,7 18 10 41 22 W 1014,4 50 35 0,0
29.10.2020 13:00:00 11,9 5,9 13,0 11,5 10,1 12,7 23 13 41 22 W 1014,0 43 30 0,0
29.10.2020 12:00:00 11,6 6,0 12,1 11,6 9,9 12,7 20 11 41 22 W 1013,6 44 42 0,0
29.10.2020 11:00:00 11,0 6,2 12,1 10,4 9,9 12,7 23 12 42 23 W 1012,8 51 55 0,0
29.10.2020 10:00:00 9,6 5,6 7,9 8,8 9,9 12,8 18 10 33 18 W 1012,1 52 0 0,0
29.10.2020 09:00:00 9,5 5,7 7,7 8,3 10,0 12,8 17 9 38 21 WSW 1011,0 74 18 0,0
29.10.2020 08:00:00 9,6 6,5 7,7 7,8 10,1 12,8 11 6 20 11 SW 1010,0 65 4 0,0
29.10.2020 07:00:00 9,1 6,5 6,7 7,7 10,2 12,8 12 7 27 15 SW 1009,1 57 0 0,0
29.10.2020 06:00:00 9,6 6,9 7,2 8,3 10,2 12,8 14 8 26 14 WSW 1008,5 65 0 0,0
29.10.2020 05:00:00 10,3 8,6 8,9 9,1 10,3 12,8 13 7 29 16 SW 1007,9 62 0 3,2
29.10.2020 04:00:00 11,1 8,0 9,2 9,0 10,4 12,8 14 7 27 15 SSW 1007,3 20 0 0,0
29.10.2020 03:00:00 11,3 7,5 10,1 8,8 10,4 12,8 11 6 26 14 S 1007,6 49 0 0,0
29.10.2020 02:00:00 11,2 7,2 9,8 8,7 10,5 12,8 13 7 30 16 S 1008,0 51 0 0,0
29.10.2020 01:00:00 11,2 7,2 10,1 8,8 10,6 12,8 13 7 26 14 S 1008,6 54 0 0,0
29.10.2020 00:00:00 11,4 7,2 9,7 9,1 10,7 12,8 16 9 31 17 SSW 1009,1 57 0 0,0
28.10.2020 23:00:00 11,8 7,3 10,7 9,2 10,8 12,8 19 10 29 16 SSW 1009,4 59 0 0,0
28.10.2020 22:00:00 11,6 7,7 10,1 9,2 11,0 12,8 15 8 26 14 SSW 1009,9 53 0 0,0
28.10.2020 21:00:00 11,5 8,1 9,7 9,2 11,1 12,8 13 7 27 15 SSW 1010,4 53 0 0,0
28.10.2020 20:00:00 11,4 8,6 9,5 9,5 11,3 12,8 16 9 28 15 SSW 1010,4 63 0 0,0
28.10.2020 19:00:00 11,8 8,8 9,9 9,9 11,4 12,8 13 7 27 14 SSW 1010,4 67 0 0,0
28.10.2020 18:00:00 11,7 9,0 8,8 10,7 11,4 12,8 7 4 20 11 S 1010,0 66 0 0,0
28.10.2020 17:00:00 13,4 8,9 11,5 12,1 11,2 12,8 13 7 25 14 SSW 1009,8 75 15 0,0
28.10.2020 16:00:00 14,9 9,1 14,5 13,5 11,0 12,8 9 5 27 14 SSW 1009,6 62 53 0,0
28.10.2020 15:00:00 14,6 8,8 13,7 13,9 10,7 12,8 15 8 28 15 SSW 1009,3 67 51 0,0
28.10.2020 14:00:00 15,2 9,7 16,8 14,0 10,4 12,8 18 10 33 18 SSW 1009,2 66 44 0,0
28.10.2020 13:00:00 14,9 9,3 15,8 14,0 10,0 12,9 19 11 40 22 SW 1009,1 59 60 0,0
28.10.2020 12:00:00 13,8 9,1 14,7 13,0 9,8 12,9 23 12 39 21 SW 1008,9 71 60 0,0
28.10.2020 11:00:00 12,5 8,8 13,3 11,1 9,6 12,9 17 9 29 15 SSW 1009,0 57 45 0,0
28.10.2020 10:00:00 11,9 8,4 12,1 9,9 9,6 12,9 15 8 25 14 SSW 1009,0 75 2 0,0
28.10.2020 09:00:00 11,0 7,6 10,4 8,7 9,6 12,9 16 8 29 16 SSW 1008,6 59 3 0,0
28.10.2020 08:00:00 10,8 6,9 9,6 8,1 9,6 12,9 14 8 25 14 SSW 1007,8 65 0 0,0
28.10.2020 07:00:00 10,9 6,9 9,5 8,2 9,6 12,9 12 6 24 13 SSW 1007,3 64 0 0,0
28.10.2020 06:00:00 10,3 6,6 9,1 7,9 9,6 12,9 5 3 18 10 S 1007,1 57 0 0,0
28.10.2020 05:00:00 9,2 5,8 8,3 7,8 9,7 12,9 8 4 23 13 SSE 1006,9 56 0 0,0
28.10.2020 04:00:00 9,9 5,4 8,9 7,9 9,7 12,9 15 8 29 16 S 1006,5 62 0 0,0
28.10.2020 03:00:00 9,8 5,4 9,0 7,7 9,8 12,9 14 7 33 18 S 1006,8 59 0 0,0
28.10.2020 02:00:00 9,9 5,3 8,9 7,3 9,9 12,9 15 8 34 18 S 1006,8 60 0 0,0
28.10.2020 01:00:00 8,8 5,9 7,5 7,2 10,1 12,9 16 8 27 15 S 1007,4 53 0 0,0
28.10.2020 00:00:00 9,2 5,5 7,9 7,2 10,2 12,9 12 7 27 15 S 1007,9 63 0 0,0
27.10.2020 23:00:00 9,3 5,6 7,8 7,3 10,4 12,9 14 8 26 14 S 1008,1 58 0 0,0
27.10.2020 22:00:00 9,6 5,6 7,8 7,5 10,5 12,9 12 6 23 12 S 1008,5 58 0 0,0
27.10.2020 21:00:00 9,6 6,0 7,2 8,2 10,7 12,9 11 6 21 11 S 1008,6 63 0 0,0
27.10.2020 20:00:00 10,0 6,3 8,1 8,6 10,8 12,9 12 6 23 13 S 1008,6 58 0 0,0
27.10.2020 19:00:00 10,7 6,5 9,1 9,5 10,8 12,9 11 6 23 12 S 1008,7 57 0 0,0
27.10.2020 18:00:00 11,0 6,5 9,9 9,8 10,9 12,9 12 7 29 16 SSW 1008,8 68 0 0,0
27.10.2020 17:00:00 11,3 6,5 10,3 10,3 10,8 12,9 16 9 29 16 SSW 1008,4 71 0 0,0
27.10.2020 16:00:00 11,6 6,3 10,7 10,9 10,7 12,9 18 10 36 20 SSW 1008,3 70 5 0,0
27.10.2020 15:00:00 12,2 6,5 11,6 12,1 10,5 12,9 16 9 31 17 SSW 1008,3 62 37 0,0
27.10.2020 14:00:00 13,1 6,7 14,4 11,9 10,3 12,9 16 9 38 20 SSW 1008,2 56 22 0,0
27.10.2020 13:00:00 12,8 6,0 14,7 12,0 10,0 12,9 21 11 40 22 SW 1008,5 31 24 0,0
27.10.2020 12:00:00 12,9 6,0 14,1 12,3 9,7 12,9 22 12 36 20 SW 1008,2 50 39 0,0
27.10.2020 11:00:00 12,2 7,3 12,5 11,2 9,6 12,9 17 9 29 16 SW 1008,0 53 57 0,0
27.10.2020 10:00:00 11,1 6,8 12,0 9,1 9,6 12,9 11 6 24 13 SSW 1007,7 55 60 0,0
27.10.2020 09:00:00 9,0 6,1 7,7 6,6 9,7 12,9 10 5 18 10 S 1007,9 43 47 0,0
27.10.2020 08:00:00 8,0 5,7 6,0 6,2 9,9 12,9 11 6 21 11 S 1007,7 47 0 0,0
27.10.2020 07:00:00 7,8 5,7 5,3 6,4 10,0 12,9 11 6 20 11 S 1007,2 44 0 0,0
27.10.2020 06:00:00 8,3 5,9 6,1 6,8 10,2 12,9 12 7 19 10 S 1006,7 43 0 0,0
27.10.2020 05:00:00 8,3 6,1 6,7 7,1 10,3 12,9 8 5 18 10 S 1006,5 47 0 0,0
27.10.2020 04:00:00 8,9 6,1 7,1 7,4 10,5 12,9 11 6 19 11 SSW 1006,1 45 0 0,0
27.10.2020 03:00:00 8,8 6,1 7,4 7,5 10,6 12,9 13 7 23 12 SSW 1005,7 43 0 0,0
27.10.2020 02:00:00 8,8 5,9 7,0 7,5 10,8 12,9 14 8 21 11 SW 1006,0 50 0 0,0
27.10.2020 01:00:00 8,7 6,1 6,5 7,9 11,0 12,9 12 6 21 12 SW 1006,3 55 0 0,0
27.10.2020 00:00:00 8,9 6,2 6,7 8,3 11,1 12,9 10 5 18 10 SSW 1006,2 51 0 0,0
26.10.2020 23:00:00 9,2 6,5 6,9 8,7 11,3 12,9 9 5 21 11 SSW 1005,7 58 0 0,0
26.10.2020 22:00:00 9,4 7,2 7,5 9,1 11,4 12,9 10 6 16 9 SSW 1005,5 59 0 0,0
26.10.2020 21:00:00 9,3 7,8 7,2 9,6 11,5 12,9 6 3 14 8 SSW 1004,8 47 0 0,0
26.10.2020 20:00:00 10,0 8,6 8,5 10,0 11,6 12,9 8 4 13 7 SW 1004,8 47 0 0,0
26.10.2020 19:00:00 10,1 9,1 8,9 10,5 11,7 12,9 8 5 12 7 SSW 1004,5 42 0 0,0
26.10.2020 18:00:00 10,1 9,3 8,7 10,9 11,7 12,9 3 2 8 5 S 1003,8 39 0 0,0
26.10.2020 17:00:00 10,4 9,6 9,6 11,5 11,7 12,9 3 2 5 3 SSW 1003,6 48 0 0,1
26.10.2020 16:00:00 10,7 9,0 9,7 11,9 11,6 12,9 3 1 24 13 SW 1003,2 29 0 1,1
26.10.2020 15:00:00 12,0 11,2 11,4 12,2 11,5 12,9 5 3 10 5 S 1002,9 35 0 0,1
26.10.2020 14:00:00 11,9 11,1 11,3 12,1 11,4 12,9 4 2 9 5 SSE 1002,7 18 0 0,4
26.10.2020 13:00:00 11,9 10,7 11,3 12,2 11,3 12,9 5 3 11 6 SW 1002,6 32 0 0,0
26.10.2020 12:00:00 11,8 10,9 11,5 11,9 11,3 12,9 5 3 17 9 SSW 1003,1 32 0 0,7
26.10.2020 11:00:00 11,3 10,7 10,6 11,1 11,3 12,9 6 4 13 7 S 1003,8 16 0 0,8
26.10.2020 10:00:00 11,2 10,5 10,4 10,6 11,3 12,9 6 3 12 6 SSW 1003,2 17 0 1,2
26.10.2020 09:00:00 11,0 10,4 10,3 10,6 11,3 12,9 5 3 8 5 S 1003,1 15 0 0,3
26.10.2020 08:00:00 11,1 10,2 10,1 10,3 11,3 12,9 5 3 19 10 SSE 1003,0 22 0 0,6
26.10.2020 07:00:00 11,3 10,3 10,2 10,3 11,4 12,9 9 5 17 9 S 1003,6 19 0 1,7
26.10.2020 06:00:00 11,4 9,8 10,0 10,3 11,4 12,9 6 3 14 8 SSW 1003,0 37 0 0,9
26.10.2020 05:00:00 12,3 8,9 10,9 10,2 11,5 12,9 8 5 15 8 S 1002,9 62 0 0,0
26.10.2020 04:00:00 11,7 9,1 10,6 10,0 11,6 12,9 6 3 12 7 S 1002,9 67 0 0,0
26.10.2020 03:00:00 11,1 9,3 9,2 10,0 11,7 12,9 4 2 9 5 SW 1003,0 62 0 0,0
26.10.2020 02:00:00 11,3 9,0 8,7 10,0 11,8 12,9 5 3 11 6 SSW 1003,7 62 0 0,0
26.10.2020 01:00:00 11,6 9,2 9,3 10,2 11,9 12,9 6 4 11 6 SSE 1003,6 75 0 0,0
26.10.2020 00:00:00 12,8 9,2 11,0 10,8 12,0 12,9 8 5 16 8 SSW 1003,7 59 0 0,0
25.10.2020 23:00:00 13,8 9,2 12,1 11,0 12,0 12,9 10 5 17 9 SSW 1004,1 56 0 0,0
25.10.2020 22:00:00 13,2 9,5 11,4 11,1 12,1 12,9 9 5 14 7 SSW 1004,2 61 0 0,0
25.10.2020 21:00:00 12,6 9,4 10,6 11,2 12,2 12,9 6 3 11 6 SSW 1004,5 49 0 0,0
25.10.2020 20:00:00 12,9 8,9 11,1 11,3 12,3 12,9 5 3 13 7 SSE 1004,1 59 0 0,0

tt = temperature
td = dewpoint
tt 5cm = temperature 5cm
tt -5cm = temperature -5cm
tt -20cm = temperature -20cm
tt -100cm = temperature -100cm
ff = wind speed
fx = gusts
dd = wind direction
ppp = reduced air pressure
vv = visibility
sd = sunshine duration
rr = precipitation

Next stations